Temp_Advection
nan nan nan nan nan nan nan nan nan nan nan nan nan nan nan nan nan nan nan nan nan nan nan nan nan nan nan nan nan nan nan nan nan nan nan nan nan nan nan nan nan nan nan nan nan
nan 0 -0 -0 -0 0 1 0 -0 -0 0 -0 -0 -0 -0 0 0 0 0 0 -0 -0 -0 -1 -1 -0 -0 -0 0 -0 -0 0 -1 -0 0 0 0 -0 -0 -0 -0 -0 -0 0 nan
nan 0 -0 -0 0 0 0 -0 -0 -0 0 0 -0 -0 0 0 0 -0 -0 -0 -0 0 0 -0 -0 -1 -0 -0 -0 -0 -0 -0 -0 -0 1 0 0 0 -0 0 0 -0 -0 -0 nan
nan 0 -0 -0 0 0 0 -0 -0 0 0 0 -0 -0 0 0 0 -0 0 0 0 0 0 0 -0 -0 -0 -0 -0 -0 -0 -0 -0 0 0 1 0 -0 0 -0 0 0 0 0 nan
nan 0 -0 0 0 0 -0 0 0 -0 0 0 0 -0 0 0 -0 0 0 0 0 0 0 0 0 0 0 0 -0 -1 -0 -0 0 0 0 0 0 0 0 0 0 0 0 0 nan
nan 0 -0 -0 0 0 0 -0 0 -0 -0 -0 -0 0 0 -0 0 1 0 -0 0 0 1 1 0 0 0 0 -0 -0 -0 -0 0 -0 0 -0 0 -0 -0 0 -0 -0 -0 0 nan
nan 0 0 -0 -0 0 -0 -0 -0 0 0 -0 0 0 -0 0 1 0 0 -0 0 0 0 0 1 0 0 -0 0 -0 -0 -0 -0 0 -0 -0 -1 -1 0 0 -0 -0 -0 0 nan
nan 0 0 -0 -0 0 -0 -0 0 0 0 0 0 0 -0 0 1 1 0 0 0 0 -0 -0 0 1 0 -0 0 0 -0 -0 -0 0 0 -0 -1 -0 0 -0 -0 -0 0 0 nan
nan -0 -0 0 0 0 0 0 0 0 0 0 0 0 -0 0 0 0 0 1 0 0 0 -0 -0 0 0 -0 -0 -0 -0 0 -0 -0 -0 -0 -0 -0 0 -0 -0 -0 0 0 nan
nan -0 0 0 -0 0 0 0 1 0 0 0 0 -0 -0 0 0 0 0 0 0 0 0 0 0 0 0 0 0 -0 -0 -0 0 -0 -0 -0 -1 0 0 -0 -1 -0 0 0 nan
nan -0 -0 -0 0 0 0 0 0 -0 -0 0 0 -0 0 1 0 0 0 0 0 0 -0 0 0 0 -0 -0 -0 0 -0 0 -0 -0 -0 -1 -0 -0 0 0 0 -0 -0 -0 nan
nan -0 -0 -0 0 0 0 0 0 0 0 0 -0 -0 0 1 0 -0 0 0 -0 -0 0 -0 -0 0 0 0 0 0 0 -0 -0 0 -0 -1 -0 -1 -1 0 0 0 0 1 nan
nan -0 -0 0 0 -0 -0 0 0 0 0 -0 0 0 0 0 -0 -0 0 0 0 0 0 -0 -0 0 0 0 0 -0 -0 -0 -0 0 0 -1 -2 -1 0 1 1 1 0 0 nan
nan -0 -0 -0 0 -0 0 0 0 0 0 0 0 0 0 0 -0 0 0 0 0 0 -0 -1 0 0 0 -0 -1 0 -1 -0 -0 -0 -0 0 -1 -1 -0 1 0 0 0 0 nan
nan 0 -0 -0 0 0 0 0 0 0 0 -0 -0 0 0 0 -0 0 0 0 -0 0 0 -0 0 0 -0 -0 -0 -0 -0 -0 -0 0 -0 -0 -0 -1 -0 -0 -0 0 1 0 nan
nan -0 0 0 0 -0 -0 -0 -0 -0 -0 -0 -0 0 0 -0 0 0 0 -0 0 0 -1 -0 0 -0 -0 0 -0 0 -0 -0 -0 0 -0 0 0 -1 -0 -0 -0 -0 0 0 nan
nan -0 -0 0 0 -0 -0 0 -0 -0 -0 0 0 0 -0 -0 0 0 0 0 -0 0 0 -0 -0 -0 -0 0 -0 -0 -0 0 0 -0 0 -0 -0 -1 -1 0 -0 -0 -0 0 nan
nan -0 -0 -0 -0 0 0 -0 -0 0 0 0 0 0 -0 0 0 0 0 -0 -0 0 -0 -0 -0 -0 -0 -0 -0 0 -0 -0 -0 -0 -0 -0 -0 -0 -0 0 -0 0 0 0 nan
nan -0 -0 0 0 0 -0 -0 0 0 -0 -0 -0 -0 -0 0 -0 -0 -0 -0 -0 -0 -0 0 -0 -0 0 -0 -0 0 0 -0 -0 0 -0 -0 -0 -0 -0 0 0 0 0 -0 nan
nan -0 0 0 -0 0 -0 -0 0 -0 0 0 0 -0 -0 -0 -0 -0 0 -0 -0 -0 -0 0 -0 0 -0 -0 0 -0 0 0 -0 -0 -0 -0 0 1 -0 -0 -0 -0 0 0 nan
nan 0 1 -0 0 -0 -0 0 -0 -0 -0 -0 0 0 0 0 -0 0 -0 -0 0 0 -0 0 0 -0 -0 -0 -0 -0 -0 -0 -0 -0 -0 -0 0 -0 -0 -0 -0 -0 0 0 nan
nan 0 1 0 0 0 -0 -0 -0 -0 -0 0 -0 -0 -0 0 0 0 -0 -0 0 -0 -0 0 -0 -0 0 -0 -0 -0 -0 -0 -0 0 0 -0 -0 -0 0 0 -0 -0 0 0 nan
nan -0 -0 0 -0 -0 -0 0 -0 0 -0 0 0 -0 -0 0 0 0 0 -0 0 -0 -0 0 0 -0 0 -0 -0 -0 -0 -0 0 0 -0 -1 -0 -0 -0 -0 -0 0 0 0 nan
nan -0 -0 -0 0 0 -0 -0 -0 -0 0 0 0 -0 -0 0 0 0 0 -0 0 0 -0 0 -0 -0 -0 0 0 0 -0 -0 1 -0 -1 -1 -1 -1 -0 -0 1 1 0 0 nan
nan -0 -0 0 -0 -0 -0 -0 0 -0 0 -0 -0 -0 -0 -0 -0 -0 -0 -0 -0 0 -0 -0 0 -0 -1 -0 -0 0 -0 0 1 -1 -1 -1 -1 -1 -0 -0 0 1 1 0 nan
nan 0 -0 0 -0 -0 -0 0 0 0 0 0 -0 -0 0 -0 -0 0 0 -0 -0 -0 -0 0 0 0 -0 -1 1 0 -1 -0 -1 -0 0 -0 -2 -2 -1 -1 -1 -0 0 0 nan
nan nan nan nan nan nan nan nan nan nan nan nan nan nan nan nan nan nan nan nan nan nan nan nan nan nan nan nan nan nan nan nan nan nan nan nan nan nan nan nan nan nan nan nan nan
Wind_Speed
30 28 22 19 15 17 19 19 17 13 12 13 13 10 7 30 27 23 14 11 9 23 19 15 16 20 19 11 2 2 4 9 7 14 9 13 8 5 3 9 4 2 4 10 11
37 21 19 18 17 21 19 18 17 15 14 12 8 11 15 18 18 16 7 7 16 21 15 20 23 23 17 11 1 3 4 5 8 8 11 13 10 10 7 9 6 7 6 9 10
34 25 20 18 16 17 14 21 21 18 17 17 14 9 9 11 10 7 4 12 23 23 16 18 21 22 15 14 1 3 2 6 4 5 10 9 7 5 7 8 7 9 10 10 9
31 25 21 17 14 16 17 21 20 21 23 21 16 18 23 5 4 6 10 15 21 24 18 23 21 16 14 10 4 6 6 4 4 3 3 8 6 5 6 5 5 5 9 9 9
35 24 19 19 17 16 14 15 19 23 24 24 19 18 14 7 8 6 14 17 21 20 17 22 20 13 14 9 12 10 7 8 7 6 4 2 4 1 6 5 4 5 8 9 9
29 27 19 18 17 15 13 16 18 19 23 23 23 12 7 12 7 14 15 15 15 15 14 19 12 8 12 8 3 10 13 10 6 5 4 2 3 2 8 7 6 7 10 11 10
22 23 20 17 16 16 16 19 19 19 22 22 16 19 21 11 13 13 13 15 19 15 12 12 9 5 14 12 13 15 9 8 5 3 2 4 6 9 6 9 9 8 9 12 12
20 20 21 21 15 16 16 17 19 17 20 21 14 11 11 14 13 16 14 14 13 15 14 13 11 13 7 17 8 6 5 6 4 3 1 2 6 10 8 10 11 12 12 13 13
13 17 17 25 29 23 18 17 17 16 13 8 10 9 9 10 12 14 16 13 15 14 16 12 8 8 9 10 8 4 7 5 4 1 3 5 6 7 7 9 13 14 15 15 15
14 11 18 24 25 26 20 15 13 9 6 7 7 7 9 8 13 14 13 12 10 14 12 5 4 6 6 8 6 9 5 7 6 3 5 8 14 11 9 11 15 15 16 17 18
12 5 8 12 12 13 14 12 11 13 26 17 16 18 10 12 13 11 10 9 8 8 8 4 7 6 8 5 5 4 4 7 2 2 5 9 14 13 15 19 21 23 23 22 21
9 6 3 2 8 13 13 8 9 10 17 20 19 16 15 14 11 12 11 5 5 9 9 6 8 5 3 3 4 3 5 3 2 2 5 10 18 18 17 23 24 24 24 22 18
7 7 5 4 5 9 14 16 13 8 6 13 16 14 12 13 10 14 11 6 9 9 6 5 7 2 2 5 4 6 4 4 3 6 5 10 13 11 7 13 14 14 16 14 13
6 5 12 10 4 6 5 8 8 6 4 10 9 9 10 4 6 12 8 4 5 8 9 8 3 3 5 7 7 2 5 3 4 5 4 5 5 10 10 12 9 12 11 10 10
7 5 7 7 3 6 7 10 8 5 4 9 6 6 9 7 2 12 11 10 7 6 3 2 4 5 6 4 6 5 3 3 3 4 4 6 3 7 6 8 8 5 10 11 10
6 4 5 11 9 11 10 6 5 2 4 4 5 6 3 12 5 4 6 8 2 9 14 8 3 4 3 5 6 4 2 4 3 3 3 2 3 6 3 1 1 1 2 7 9
2 7 3 3 5 6 2 2 3 4 0 1 4 3 6 6 5 4 6 6 3 2 2 5 5 3 2 1 2 1 3 2 2 1 3 3 4 12 7 3 2 0 3 3 6
2 3 8 2 2 3 5 1 5 0 2 1 1 4 3 2 3 2 2 4 5 3 2 2 1 1 3 4 4 1 3 2 4 2 4 4 6 3 3 5 5 9 5 3 5
2 4 13 5 3 6 1 4 2 3 4 3 2 1 2 1 1 2 3 2 2 4 1 2 2 3 3 2 3 3 3 2 1 2 3 4 4 10 2 3 10 10 9 9 7
3 2 14 7 5 8 2 4 2 2 3 1 1 2 2 3 3 3 3 2 2 2 4 2 2 1 3 2 1 3 2 1 2 3 5 4 5 5 5 8 8 4 7 7 6
4 0 15 6 7 1 4 4 4 2 2 3 1 2 2 2 0 2 3 3 0 2 3 1 1 4 3 8 4 4 3 4 3 3 4 6 3 4 4 5 4 4 3 4 6
5 1 16 4 1 4 3 4 4 4 1 1 2 2 0 1 1 1 1 3 4 3 0 2 2 3 1 4 3 6 7 9 4 4 5 5 7 1 4 4 4 4 3 4 6
2 3 10 6 2 4 3 3 2 4 3 2 2 1 1 2 1 1 2 2 4 2 1 1 2 2 3 3 3 6 10 10 8 3 12 6 5 4 4 4 4 3 8 13 16
3 1 5 7 4 4 2 2 3 1 3 2 1 2 3 4 3 2 3 2 4 2 1 0 3 7 6 6 4 5 8 13 14 6 9 18 20 14 9 11 19 12 18 17 18
5 2 2 2 5 5 0 1 1 2 2 4 3 7 5 4 3 3 3 4 4 4 3 2 4 2 11 13 13 16 17 16 19 22 12 13 20 16 15 17 25 24 19 16 16
5 2 1 2 0 1 0 1 2 1 2 2 4 2 6 4 2 2 4 5 4 8 6 4 3 4 7 12 10 16 21 22 24 24 23 25 31 24 23 12 13 12 15 14 14
5 5 4 2 2 2 1 1 1 1 3 3 3 4 5 7 10 10 8 5 5 6 9 5 3 3 5 3 14 16 10 12 18 19 19 21 24 18 13 16 16 15 15 16 17
Wind_Direction
2 11 20 29 55 79 101 105 105 122 126 128 120 48 168 119 125 133 141 143 160 164 154 164 162 158 162 171 147 176 213 188 172 178 143 157 151 151 142 134 133 100 95 120 153
13 8 26 51 74 73 83 94 108 122 118 119 96 76 101 128 124 109 116 160 163 155 153 164 163 158 161 162 92 266 225 121 1 45 153 162 165 145 162 156 140 129 120 144 153
21 27 48 65 74 81 86 106 111 112 106 113 100 77 102 98 118 46 179 164 150 141 154 159 157 161 153 161 107 39 39 109 61 38 137 146 142 160 185 189 161 173 158 158 166
26 42 51 69 77 83 97 107 112 109 110 111 98 113 101 61 87 352 129 143 147 141 138 157 161 162 156 149 120 114 61 81 105 75 150 163 140 170 208 84 143 141 166 175 183
38 40 59 70 74 85 88 95 105 115 115 126 116 116 107 78 35 53 122 133 137 137 148 155 158 155 156 125 106 103 113 90 89 87 80 154 168 96 212 182 171 182 198 199 207
43 39 61 73 75 80 85 99 104 118 128 135 121 93 97 75 37 103 116 127 132 126 145 158 152 133 119 104 40 116 112 104 76 72 55 266 192 268 204 191 212 222 221 222 229
51 58 52 58 72 83 91 99 106 125 127 132 109 99 81 57 79 99 113 131 125 134 122 117 129 197 135 102 108 122 108 116 73 28 62 335 228 230 186 190 212 225 226 227 231
51 68 56 55 68 77 83 98 95 111 116 117 91 73 77 73 71 87 89 114 122 128 136 108 106 95 88 119 122 125 165 161 93 338 171 280 267 176 191 211 230 232 232 232 234
42 71 71 70 73 82 92 97 92 99 127 100 78 79 63 69 79 72 95 90 125 121 114 101 100 91 132 145 134 191 174 205 153 66 291 225 266 125 208 227 242 240 237 239 239
44 77 90 89 79 72 80 82 60 46 100 50 24 72 44 21 66 67 94 87 106 117 98 81 99 136 152 180 176 173 158 192 205 81 261 248 256 255 225 236 243 245 243 243 242
49 97 117 110 89 36 100 85 68 47 57 65 71 81 59 59 57 52 80 82 98 147 127 35 108 89 73 0 342 137 160 182 95 7 289 260 271 271 267 251 248 251 252 251 249
49 70 115 76 17 59 75 104 103 115 70 56 64 64 57 44 72 40 41 65 131 107 131 117 95 89 86 66 82 160 160 117 123 344 301 300 287 275 257 249 245 249 251 251 250
53 62 86 38 69 99 104 112 103 110 76 29 36 32 29 34 44 16 37 42 51 98 116 94 87 96 116 99 116 61 11 57 1 309 237 297 274 255 232 252 253 252 254 252 247
75 97 117 111 74 102 35 39 34 29 96 8 6 20 360 26 58 24 38 33 49 71 62 65 59 87 90 76 348 142 28 23 352 343 287 6 292 293 272 252 220 245 228 222 206
57 158 168 169 229 276 318 326 340 11 78 348 6 4 15 61 9 19 28 53 69 48 250 88 85 72 69 30 348 60 13 358 325 307 348 189 248 273 274 283 261 230 221 207 197
49 59 204 233 250 260 284 314 348 20 76 339 355 2 88 45 49 44 55 64 78 67 67 87 75 29 54 64 45 104 288 266 273 288 261 127 243 283 240 293 337 120 148 183 190
88 48 31 259 253 255 264 26 10 41 169 62 55 44 72 42 61 53 61 58 52 76 93 119 52 77 12 135 117 285 291 294 242 225 281 135 244 249 294 244 282 27 127 153 199
86 62 24 24 255 221 133 259 58 91 53 54 63 97 80 359 62 59 127 108 63 360 136 157 164 19 20 11 353 35 320 292 272 293 334 151 239 267 352 316 292 243 227 254 246
101 87 23 31 97 151 131 60 87 122 129 155 164 199 101 96 303 173 57 72 51 4 352 199 106 119 47 358 317 112 217 45 329 165 267 243 273 270 337 281 263 243 235 250 246
97 121 15 42 89 123 70 91 80 65 124 172 338 300 148 122 204 217 178 81 117 348 330 123 154 203 131 215 121 300 94 216 180 292 281 258 253 248 323 349 10 198 238 243 247
77 264 359 45 84 99 79 67 102 118 0 321 116 136 67 125 276 121 85 123 254 140 333 183 259 136 204 205 185 162 207 215 298 251 285 301 267 191 250 322 336 5 328 286 276
52 21 355 52 93 61 68 100 125 153 203 160 319 21 50 144 146 149 118 59 155 179 220 61 301 230 242 98 309 267 238 221 244 183 243 302 273 253 274 262 261 282 292 297 300
51 30 12 40 34 69 109 104 132 163 188 201 162 299 331 165 234 264 165 103 166 206 358 111 226 269 187 182 198 234 219 231 249 303 246 256 261 165 174 191 144 316 319 306 295
3 46 29 47 52 69 94 149 150 180 174 196 156 200 184 183 187 164 194 126 180 201 79 46 274 261 285 358 341 235 224 215 214 222 242 230 265 258 249 261 303 303 306 307 304
28 63 27 30 43 40 79 44 242 201 235 214 208 237 205 191 204 215 185 165 184 185 187 256 262 292 276 279 272 259 259 245 229 236 252 270 268 276 299 305 304 302 306 303 306
357 322 66 99 332 266 218 162 220 239 249 234 263 308 228 250 261 180 199 211 209 182 202 194 270 296 280 272 272 274 261 252 247 250 252 263 272 290 298 322 318 299 303 308 314
7 345 303 180 154 255 61 142 197 200 190 257 272 275 266 294 312 293 271 276 277 197 203 198 236 284 270 333 304 281 269 258 238 243 249 253 260 285 318 336 327 321 314 312 314
Height
1455 1447 1440 1435 1430 1425 1428 1432 1437 1441 1443 1447 1450 1454 1455 1455 1459 1465 1469 1471 1472 1473 1478 1484 1487 1491 1495 1499 1498 1498 1492 1491 1490 1491 1500 1506 1508 1514 1514 1516 1519 1521 1521 1524 1525
1455 1449 1445 1441 1439 1437 1436 1439 1441 1443 1445 1444 1447 1456 1462 1456 1461 1464 1467 1468 1469 1473 1480 1484 1487 1490 1493 1497 1498 1494 1488 1489 1499 1499 1501 1506 1506 1511 1515 1517 1519 1521 1522 1523 1525
1460 1454 1450 1449 1447 1443 1441 1444 1446 1447 1447 1447 1451 1460 1464 1461 1466 1469 1468 1467 1469 1473 1481 1486 1489 1490 1493 1496 1499 1499 1492 1503 1508 1508 1506 1509 1511 1513 1511 1514 1516 1519 1522 1524 1526
1465 1461 1458 1455 1453 1450 1447 1450 1452 1451 1453 1454 1455 1458 1466 1466 1469 1472 1469 1469 1472 1476 1482 1486 1490 1490 1493 1495 1499 1503 1507 1508 1513 1514 1513 1511 1513 1513 1513 1515 1518 1520 1522 1523 1525
1471 1467 1464 1463 1460 1457 1455 1457 1458 1457 1460 1461 1463 1465 1466 1467 1472 1471 1470 1472 1475 1480 1485 1488 1489 1490 1491 1497 1498 1502 1510 1512 1514 1516 1517 1517 1515 1513 1515 1516 1517 1519 1520 1522 1524
1475 1472 1470 1468 1465 1463 1462 1462 1464 1463 1466 1466 1467 1469 1472 1472 1473 1472 1475 1477 1479 1484 1487 1490 1491 1493 1496 1499 1498 1506 1510 1514 1516 1518 1519 1518 1517 1517 1514 1515 1516 1517 1519 1521 1522
1479 1476 1475 1473 1472 1469 1466 1467 1469 1468 1468 1470 1473 1476 1474 1478 1477 1478 1480 1480 1481 1487 1488 1490 1494 1496 1498 1500 1507 1508 1512 1514 1518 1520 1520 1521 1517 1513 1513 1514 1515 1516 1517 1519 1519
1485 1482 1480 1477 1476 1475 1475 1472 1474 1475 1474 1476 1478 1479 1479 1482 1481 1481 1483 1484 1485 1488 1491 1494 1496 1497 1499 1504 1508 1507 1509 1512 1518 1521 1521 1522 1506 1507 1512 1513 1513 1514 1515 1515 1516
1491 1488 1485 1483 1479 1480 1480 1480 1480 1480 1480 1480 1482 1481 1484 1486 1486 1485 1485 1489 1490 1492 1493 1496 1498 1501 1504 1501 1505 1508 1508 1510 1517 1521 1522 1519 1508 1509 1511 1511 1510 1510 1511 1512 1512
1494 1493 1490 1487 1485 1487 1486 1486 1485 1483 1483 1482 1484 1486 1491 1492 1490 1489 1491 1492 1495 1495 1497 1501 1500 1500 1499 1499 1506 1503 1506 1508 1509 1520 1520 1515 1509 1506 1508 1508 1506 1505 1505 1506 1508
1497 1495 1494 1492 1492 1491 1490 1490 1492 1493 1490 1496 1494 1493 1495 1495 1495 1495 1495 1496 1497 1497 1499 1503 1502 1506 1506 1511 1505 1494 1501 1504 1516 1524 1523 1510 1505 1501 1502 1501 1501 1500 1500 1500 1502
1500 1498 1497 1495 1495 1494 1493 1492 1492 1497 1498 1498 1499 1499 1498 1498 1498 1498 1498 1499 1497 1501 1502 1504 1514 1517 1516 1513 1507 1505 1505 1510 1519 1523 1523 1509 1503 1497 1495 1491 1492 1493 1493 1495 1498
1504 1502 1500 1498 1498 1498 1498 1499 1496 1497 1497 1502 1502 1501 1502 1503 1504 1503 1503 1505 1503 1501 1501 1504 1519 1520 1514 1513 1510 1514 1508 1515 1521 1521 1521 1518 1495 1482 1481 1486 1487 1489 1491 1493 1494
1507 1506 1504 1502 1504 1501 1499 1497 1498 1498 1500 1513 1509 1509 1508 1505 1508 1508 1507 1511 1510 1512 1511 1516 1523 1519 1516 1518 1520 1514 1526 1524 1525 1522 1523 1518 1516 1486 1479 1477 1483 1485 1487 1490 1492
1508 1508 1507 1504 1503 1503 1502 1500 1499 1498 1506 1515 1513 1512 1510 1510 1514 1513 1511 1512 1513 1515 1516 1526 1523 1520 1520 1528 1525 1528 1529 1528 1527 1522 1534 1516 1528 1493 1478 1479 1475 1478 1483 1488 1490
1510 1508 1508 1507 1505 1504 1503 1502 1501 1506 1518 1524 1517 1516 1512 1513 1515 1515 1515 1515 1518 1517 1520 1526 1528 1528 1529 1531 1529 1530 1528 1527 1527 1524 1533 1510 1522 1500 1483 1480 1480 1482 1484 1487 1489
1510 1509 1507 1506 1506 1504 1504 1505 1509 1508 1525 1521 1518 1517 1514 1517 1517 1517 1517 1518 1519 1526 1519 1524 1529 1532 1532 1528 1531 1530 1526 1527 1528 1534 1512 1525 1528 1498 1480 1481 1483 1483 1485 1486 1488
1510 1509 1508 1506 1505 1506 1506 1508 1512 1523 1520 1522 1520 1516 1516 1520 1520 1519 1517 1516 1521 1517 1517 1523 1534 1532 1535 1532 1530 1528 1530 1531 1530 1514 1511 1524 1514 1488 1482 1482 1483 1484 1484 1485 1486
1509 1510 1509 1507 1506 1507 1511 1512 1516 1515 1519 1519 1521 1515 1519 1521 1519 1518 1519 1519 1523 1522 1520 1519 1531 1536 1537 1536 1537 1534 1534 1538 1545 1537 1532 1500 1496 1480 1480 1480 1480 1482 1483 1484 1485
1510 1510 1510 1508 1507 1509 1512 1517 1519 1521 1521 1520 1515 1519 1513 1518 1517 1516 1518 1525 1526 1527 1526 1524 1528 1535 1537 1539 1539 1536 1537 1535 1535 1535 1521 1491 1491 1498 1497 1482 1478 1480 1481 1483 1483
1511 1513 1511 1509 1509 1511 1517 1521 1523 1525 1524 1521 1518 1517 1517 1517 1517 1517 1520 1527 1527 1528 1528 1526 1527 1536 1537 1532 1524 1537 1533 1535 1534 1528 1520 1505 1487 1489 1488 1483 1483 1481 1482 1482 1482
1512 1513 1513 1510 1512 1512 1517 1519 1524 1526 1526 1524 1522 1519 1516 1520 1519 1519 1519 1522 1527 1529 1526 1528 1523 1524 1521 1528 1530 1526 1523 1522 1525 1523 1522 1520 1501 1480 1482 1483 1483 1482 1481 1481 1481
1515 1515 1514 1512 1511 1515 1523 1523 1523 1523 1524 1524 1522 1523 1522 1519 1520 1521 1522 1528 1529 1528 1527 1527 1524 1522 1521 1530 1531 1528 1523 1522 1520 1526 1521 1516 1488 1478 1481 1481 1480 1481 1480 1480 1479
1517 1516 1517 1516 1519 1517 1520 1521 1522 1525 1524 1524 1523 1523 1521 1520 1522 1520 1522 1528 1529 1529 1530 1531 1525 1522 1516 1518 1520 1522 1520 1520 1520 1521 1504 1494 1482 1475 1474 1474 1474 1477 1478 1477 1475
1519 1521 1520 1519 1519 1520 1521 1522 1523 1522 1524 1524 1522 1520 1518 1518 1519 1519 1520 1526 1529 1530 1530 1530 1527 1527 1522 1520 1518 1516 1516 1513 1516 1509 1502 1484 1476 1469 1471 1471 1473 1474 1475 1474 1472
1525 1523 1521 1522 1523 1521 1522 1521 1521 1523 1525 1523 1524 1520 1520 1517 1515 1516 1518 1519 1518 1528 1528 1529 1527 1526 1521 1510 1511 1511 1505 1502 1500 1498 1494 1493 1481 1482 1477 1476 1474 1474 1474 1473 1472
1524 1526 1524 1521 1520 1520 1519 1520 1521 1523 1523 1524 1524 1523 1523 1522 1522 1520 1519 1519 1517 1519 1522 1524 1524 1522 1514 1510 1510 1498 1483 1485 1487 1490 1490 1489 1475 1477 1477 1477 1475 1475 1475 1473 1472